Torna al catalogo

STARLINK-3564

AttivoComunicazioniVLEO
NORAD 52302·PAYLOAD·🇺🇸 United States

Lanciato Apr 21, 2022 da Cape Canaveral Space Force Station

Loading…

Prossimi Passaggi (prossime 24 ore)

TLE

AggiornatoSource: CelesTrak SupGP

Epoca: Sep 14, 2026, 21:03 UTC

1 52302C 22041AT  26257.87756944 -.00018028  00000+0 -57982-3 0  2574
2 52302  53.1569 305.9824 0001231  84.4504 128.4411 15.31705873    18

Traccia STARLINK-3564 in tempo reale con AllMySat

Download on the App Store